SCX98 KMCO-KMIA

Flight info

Callsign SCX98
Flight time 0h 42m
Altitude 23000
Route DDANY3 DDANY CSTAL3
Aircraft A388/J-SADE2E3FGHIJ3J4J5M1RWXY/LB1D1

Departure

Time 2026-04-25 00:49
Airport Orlando International Airport (KMCO)

Arrival

Time 2026-04-25 01:31
Airport Miami International Airport (KMIA)
Time Latitude Longitude Altitude Speed Heading
2026-04-25 00:03 28.41090 -81.31607 101 ft 0 kts 360°
2026-04-25 00:20 28.41086 -81.31607 103 ft 1 kts 360°
2026-04-25 00:21 28.41079 -81.31607 101 ft 1 kts 360°
2026-04-25 00:21 28.41072 -81.31607 101 ft 1 kts 360°
2026-04-25 00:21 28.41065 -81.31607 100 ft 1 kts 360°
2026-04-25 00:21 28.41058 -81.31607 99 ft 1 kts 360°
2026-04-25 00:22 28.41051 -81.31607 99 ft 1 kts 360°
2026-04-25 00:22 28.41044 -81.31607 99 ft 1 kts 360°
2026-04-25 00:22 28.41038 -81.31607 98 ft 1 kts 360°
2026-04-25 00:22 28.41030 -81.31607 101 ft 2 kts 360°
2026-04-25 00:23 28.41016 -81.31607 98 ft 2 kts 360°
2026-04-25 00:23 28.41001 -81.31607 102 ft 2 kts 360°
2026-04-25 00:23 28.40996 -81.31607 99 ft 0 kts 360°
2026-04-25 00:36 28.41003 -81.31608 102 ft 1 kts 340°
2026-04-25 00:36 28.41010 -81.31613 99 ft 2 kts 306°
2026-04-25 00:36 28.41012 -81.31629 104 ft 3 kts 246°
2026-04-25 00:36 28.41003 -81.31668 101 ft 7 kts 262°
2026-04-25 00:37 28.40999 -81.31709 101 ft 2 kts 266°
2026-04-25 00:37 28.41000 -81.31727 101 ft 0 kts 272°
2026-04-25 00:37 28.41000 -81.31728 101 ft 0 kts 272°
2026-04-25 00:39 28.41000 -81.31729 101 ft 1 kts 273°
2026-04-25 00:39 28.41002 -81.31742 105 ft 3 kts 297°
2026-04-25 00:39 28.41023 -81.31781 104 ft 8 kts 308°
2026-04-25 00:39 28.41076 -81.31801 104 ft 11 kts 356°
2026-04-25 00:40 28.41170 -81.31806 105 ft 16 kts 358°
2026-04-25 00:40 28.41282 -81.31808 105 ft 14 kts 360°
2026-04-25 00:40 28.41395 -81.31807 104 ft 19 kts
2026-04-25 00:40 28.41535 -81.31789 104 ft 22 kts
2026-04-25 00:41 28.41657 -81.31784 103 ft 8 kts 359°
2026-04-25 00:41 28.41721 -81.31810 105 ft 13 kts 326°
2026-04-25 00:41 28.41816 -81.31865 106 ft 18 kts 348°
2026-04-25 00:41 28.41954 -81.31876 105 ft 22 kts 359°
2026-04-25 00:42 28.42114 -81.31873 106 ft 23 kts 11°
2026-04-25 00:42 28.42277 -81.31838 106 ft 25 kts
2026-04-25 00:42 28.42460 -81.31828 107 ft 28 kts 360°
2026-04-25 00:42 28.42645 -81.31833 107 ft 26 kts 359°
2026-04-25 00:43 28.42841 -81.31836 105 ft 30 kts 359°
2026-04-25 00:43 28.43054 -81.31838 105 ft 31 kts 359°
2026-04-25 00:43 28.43272 -81.31839 103 ft 33 kts 359°
2026-04-25 00:43 28.43497 -81.31840 106 ft 32 kts 360°
2026-04-25 00:44 28.43721 -81.31841 108 ft 33 kts 359°
2026-04-25 00:44 28.43918 -81.31849 106 ft 26 kts 350°
2026-04-25 00:44 28.44099 -81.31896 109 ft 28 kts 354°
2026-04-25 00:44 28.44300 -81.31904 107 ft 30 kts 359°
2026-04-25 00:45 28.44511 -81.31905 107 ft 25 kts 360°
2026-04-25 00:45 28.44618 -81.31906 103 ft 15 kts 360°
2026-04-25 00:45 28.44728 -81.31906 104 ft 9 kts 360°
2026-04-25 00:45 28.44798 -81.31928 104 ft 12 kts 310°
2026-04-25 00:46 28.44818 -81.32037 101 ft 14 kts 270°
2026-04-25 00:46 28.44819 -81.32068 101 ft 7 kts 271°
2026-04-25 00:46 28.44821 -81.32172 103 ft 7 kts 266°
2026-04-25 00:47 28.44801 -81.32219 103 ft 6 kts 206°
2026-04-25 00:47 28.44791 -81.32223 103 ft 0 kts 182°
2026-04-25 00:48 28.44655 -81.32225 104 ft 67 kts 179°
2026-04-25 00:48 28.43844 -81.32211 109 ft 157 kts 180°
2026-04-25 00:48 28.42644 -81.32242 596 ft 182 kts 178°
2026-04-25 00:49 28.41381 -81.32242 1427 ft 183 kts 174°
2026-04-25 00:49 28.40058 -81.32194 1899 ft 196 kts 172°
2026-04-25 00:49 28.38744 -81.31690 2151 ft 206 kts 144°
2026-04-25 00:49 28.37706 -81.30513 2327 ft 222 kts 129°
2026-04-25 00:50 28.36682 -81.29064 2822 ft 243 kts 124°
2026-04-25 00:50 28.36019 -81.27248 3438 ft 261 kts 108°
2026-04-25 00:50 28.35490 -81.25222 4153 ft 272 kts 107°
2026-04-25 00:50 28.34978 -81.23150 4871 ft 280 kts 106°
2026-04-25 00:51 28.34453 -81.20994 5721 ft 285 kts 105°
2026-04-25 00:51 28.33926 -81.18827 6787 ft 286 kts 105°
2026-04-25 00:51 28.33390 -81.16631 7705 ft 292 kts 105°
2026-04-25 00:51 28.32842 -81.14400 8681 ft 295 kts 105°
2026-04-25 00:52 28.32286 -81.12139 9691 ft 299 kts 104°
2026-04-25 00:52 28.31721 -81.09844 10479 ft 309 kts 104°
2026-04-25 00:52 28.31330 -81.08254 10706 ft 325 kts 104°
2026-04-25 00:52 28.30479 -81.04795 11129 ft 353 kts 104°
2026-04-25 00:53 28.30037 -81.03007 11595 ft 357 kts 104°
2026-04-25 00:53 28.29362 -81.00281 12400 ft 361 kts 104°
2026-04-25 00:53 28.28456 -80.96623 13453 ft 367 kts 104°
2026-04-25 00:53 28.27760 -80.93818 13986 ft 372 kts 105°
2026-04-25 00:54 28.27070 -80.91036 14629 ft 376 kts 105°
2026-04-25 00:54 28.26357 -80.88164 15298 ft 381 kts 105°
2026-04-25 00:54 28.25637 -80.85261 15950 ft 386 kts 105°
2026-04-25 00:54 28.25152 -80.83308 16399 ft 389 kts 105°
2026-04-25 00:55 28.24413 -80.80337 17046 ft 394 kts 105°
2026-04-25 00:55 28.23406 -80.76296 17894 ft 401 kts 105°
2026-04-25 00:55 28.22900 -80.74265 18300 ft 405 kts 105°
2026-04-25 00:55 28.21607 -80.70324 19015 ft 410 kts 120°
2026-04-25 00:56 28.20475 -80.68511 19429 ft 411 kts 131°
2026-04-25 00:56 28.18331 -80.66373 19982 ft 413 kts 148°
2026-04-25 00:56 28.15749 -80.64971 20581 ft 413 kts 164°
2026-04-25 00:56 28.12959 -80.64209 21127 ft 414 kts 171°
2026-04-25 00:57 28.10153 -80.63614 21662 ft 417 kts 172°
2026-04-25 00:57 28.07301 -80.62955 22213 ft 421 kts 170°
2026-04-25 00:57 28.04431 -80.62201 22733 ft 425 kts 169°
2026-04-25 00:57 28.01544 -80.61381 22942 ft 430 kts 168°
2026-04-25 00:58 27.98613 -80.60517 22961 ft 445 kts 168°
2026-04-25 00:58 27.95577 -80.59608 22964 ft 454 kts 167°
2026-04-25 00:58 27.92530 -80.58692 22964 ft 453 kts 167°
2026-04-25 00:58 27.89481 -80.57775 22967 ft 452 kts 167°
2026-04-25 00:59 27.86448 -80.56865 22966 ft 453 kts 167°
2026-04-25 00:59 27.83438 -80.55965 22983 ft 452 kts 167°
2026-04-25 00:59 27.80397 -80.55057 22982 ft 452 kts 167°
2026-04-25 00:59 27.77358 -80.54151 22983 ft 453 kts 167°
2026-04-25 01:00 27.74306 -80.53241 22985 ft 453 kts 167°
2026-04-25 01:00 27.71262 -80.52334 22988 ft 452 kts 168°
2026-04-25 01:00 27.68219 -80.51428 22991 ft 452 kts 168°
2026-04-25 01:00 27.65190 -80.50479 22991 ft 453 kts 164°
2026-04-25 01:01 27.62212 -80.49294 22986 ft 454 kts 163°
2026-04-25 01:01 27.59234 -80.48104 22987 ft 454 kts 163°
2026-04-25 01:01 27.56255 -80.46920 22991 ft 454 kts 163°
2026-04-25 01:01 27.53319 -80.45756 22992 ft 454 kts 163°
2026-04-25 01:02 27.50301 -80.44561 22989 ft 454 kts 163°
2026-04-25 01:02 27.47363 -80.43398 22985 ft 454 kts 163°
2026-04-25 01:02 27.44387 -80.42221 22988 ft 453 kts 163°
2026-04-25 01:02 27.41407 -80.41043 22986 ft 454 kts 163°
2026-04-25 01:03 27.38431 -80.39867 22988 ft 453 kts 163°
2026-04-25 01:03 27.35453 -80.38691 22986 ft 454 kts 163°
2026-04-25 01:03 27.32478 -80.37517 22982 ft 453 kts 163°
2026-04-25 01:03 27.29505 -80.36344 22980 ft 453 kts 163°
2026-04-25 01:04 27.26530 -80.35171 22974 ft 453 kts 163°
2026-04-25 01:04 27.23554 -80.33998 22978 ft 453 kts 163°
2026-04-25 01:04 27.20576 -80.32826 22980 ft 453 kts 163°
2026-04-25 01:04 27.17598 -80.31662 22982 ft 453 kts 163°
2026-04-25 01:05 27.14625 -80.30509 22984 ft 453 kts 163°
2026-04-25 01:05 27.11686 -80.29370 22978 ft 453 kts 163°
2026-04-25 01:05 27.08705 -80.28215 22979 ft 453 kts 163°
2026-04-25 01:05 27.05727 -80.27061 22982 ft 453 kts 163°
2026-04-25 01:06 27.02757 -80.25883 22968 ft 451 kts 162°
2026-04-25 01:06 26.99840 -80.24731 22735 ft 436 kts 164°
2026-04-25 01:06 26.97015 -80.23693 22388 ft 420 kts 165°
2026-04-25 01:06 26.94258 -80.22665 21627 ft 414 kts 164°
2026-04-25 01:07 26.91577 -80.21631 21101 ft 402 kts 163°
2026-04-25 01:07 26.88963 -80.20600 20387 ft 396 kts 163°
2026-04-25 01:07 26.86383 -80.19571 19677 ft 391 kts 163°
2026-04-25 01:07 26.83831 -80.18576 18960 ft 386 kts 164°
2026-04-25 01:08 26.81326 -80.17622 17985 ft 387 kts 162°
2026-04-25 01:08 26.78759 -80.16608 17234 ft 380 kts 165°
2026-04-25 01:08 26.76303 -80.15742 16604 ft 371 kts 165°
2026-04-25 01:08 26.73857 -80.14881 15858 ft 367 kts 165°
2026-04-25 01:09 26.71443 -80.14007 15280 ft 362 kts 166°
2026-04-25 01:09 26.69011 -80.13327 15091 ft 360 kts 169°
2026-04-25 01:09 26.66567 -80.12686 14878 ft 359 kts 169°
2026-04-25 01:09 26.64148 -80.12027 14380 ft 357 kts 168°
2026-04-25 01:10 26.61771 -80.11345 14056 ft 344 kts 167°
2026-04-25 01:10 26.59484 -80.10693 13461 ft 340 kts 170°
2026-04-25 01:10 26.57131 -80.10156 13150 ft 348 kts 171°
2026-04-25 01:10 26.54756 -80.09614 13047 ft 348 kts 170°
2026-04-25 01:11 26.52419 -80.09049 13033 ft 348 kts 169°
2026-04-25 01:11 26.50052 -80.08452 13036 ft 349 kts 169°
2026-04-25 01:11 26.47686 -80.07841 13021 ft 349 kts 169°
2026-04-25 01:11 26.45332 -80.07230 12854 ft 346 kts 169°
2026-04-25 01:12 26.42979 -80.06692 12417 ft 344 kts 171°
2026-04-25 01:12 26.40658 -80.06219 12184 ft 332 kts 172°
2026-04-25 01:12 26.38440 -80.05711 12065 ft 318 kts 168°
2026-04-25 01:12 26.36345 -80.05141 11691 ft 306 kts 168°
2026-04-25 01:13 26.34269 -80.04580 11209 ft 306 kts 168°
2026-04-25 01:13 26.32237 -80.04029 11055 ft 305 kts 168°
2026-04-25 01:13 26.30173 -80.03467 11031 ft 305 kts 168°
2026-04-25 01:13 26.28113 -80.02904 11028 ft 305 kts 168°
2026-04-25 01:14 26.26037 -80.02445 11032 ft 304 kts 176°
2026-04-25 01:14 26.23934 -80.02495 11026 ft 302 kts 190°
2026-04-25 01:14 26.21887 -80.02972 11030 ft 300 kts 194°
2026-04-25 01:14 26.19841 -80.03460 11030 ft 301 kts 194°
2026-04-25 01:15 26.17792 -80.03929 11028 ft 300 kts 194°
2026-04-25 01:15 26.15752 -80.04392 11027 ft 300 kts 193°
2026-04-25 01:15 26.13699 -80.04857 11020 ft 300 kts 193°
2026-04-25 01:15 26.11677 -80.05317 11020 ft 300 kts 194°
2026-04-25 01:16 26.09629 -80.05784 11019 ft 300 kts 193°
2026-04-25 01:16 26.07586 -80.06249 11019 ft 300 kts 193°
2026-04-25 01:16 26.05544 -80.06725 11000 ft 299 kts 194°
2026-04-25 01:16 26.03526 -80.07244 10797 ft 297 kts 195°
2026-04-25 01:17 26.01515 -80.07782 10454 ft 296 kts 195°
2026-04-25 01:17 25.99525 -80.08312 9960 ft 294 kts 195°
2026-04-25 01:17 25.97571 -80.08828 9408 ft 293 kts 195°
2026-04-25 01:17 25.95620 -80.09339 8895 ft 290 kts 194°
2026-04-25 01:18 25.93661 -80.09848 8364 ft 289 kts 194°
2026-04-25 01:18 25.91762 -80.10513 8094 ft 285 kts 204°
2026-04-25 01:18 25.90000 -80.11513 8025 ft 285 kts 210°
2026-04-25 01:18 25.88246 -80.12547 8027 ft 286 kts 209°
2026-04-25 01:19 25.86480 -80.13567 8027 ft 286 kts 208°
2026-04-25 01:19 25.84720 -80.14580 8024 ft 286 kts 208°
2026-04-25 01:19 25.82945 -80.15602 8018 ft 286 kts 209°
2026-04-25 01:19 25.81203 -80.16605 8022 ft 286 kts 209°
2026-04-25 01:20 25.79439 -80.17621 8018 ft 286 kts 208°
2026-04-25 01:20 25.77674 -80.18639 8020 ft 286 kts 209°
2026-04-25 01:20 25.75925 -80.19648 7941 ft 284 kts 209°
2026-04-25 01:20 25.74168 -80.20664 7617 ft 284 kts 210°
2026-04-25 01:21 25.72654 -80.22012 7171 ft 279 kts 233°
2026-04-25 01:21 25.71817 -80.23920 6627 ft 275 kts 256°
2026-04-25 01:21 25.71402 -80.26000 5890 ft 277 kts 260°
2026-04-25 01:21 25.71114 -80.28092 5218 ft 273 kts 267°
2026-04-25 01:22 25.71081 -80.30180 4544 ft 270 kts 270°
2026-04-25 01:22 25.71030 -80.32213 4255 ft 255 kts 268°
2026-04-25 01:22 25.70955 -80.34081 4093 ft 237 kts 268°
2026-04-25 01:22 25.70873 -80.35853 3842 ft 226 kts 267°
2026-04-25 01:23 25.70790 -80.37587 3437 ft 224 kts 267°
2026-04-25 01:23 25.70709 -80.39280 3135 ft 212 kts 267°
2026-04-25 01:23 25.70630 -80.40905 3020 ft 216 kts 266°
2026-04-25 01:23 25.70548 -80.42598 3004 ft 222 kts 266°
2026-04-25 01:24 25.70464 -80.44312 2998 ft 223 kts 266°
2026-04-25 01:24 25.70337 -80.46030 3002 ft 223 kts 264°
2026-04-25 01:24 25.70182 -80.47745 3002 ft 224 kts 264°
2026-04-25 01:24 25.70027 -80.49459 3002 ft 223 kts 264°
2026-04-25 01:25 25.69879 -80.51151 3000 ft 223 kts 264°
2026-04-25 01:25 25.69754 -80.52863 2998 ft 223 kts 270°
2026-04-25 01:25 25.70189 -80.54496 2997 ft 224 kts 302°
2026-04-25 01:25 25.71347 -80.55613 2999 ft 224 kts 335°
2026-04-25 01:26 25.72863 -80.55955 3001 ft 223 kts 358°
2026-04-25 01:26 25.74357 -80.55575 2998 ft 223 kts 29°
2026-04-25 01:26 25.75426 -80.54369 2999 ft 222 kts 62°
2026-04-25 01:26 25.75970 -80.52774 3001 ft 219 kts 69°
2026-04-25 01:27 25.76542 -80.51310 2993 ft 197 kts 65°
2026-04-25 01:27 25.77114 -80.49961 3001 ft 192 kts 65°
2026-04-25 01:27 25.77651 -80.48614 2995 ft 191 kts 70°
2026-04-25 01:28 25.78034 -80.45742 2567 ft 187 kts 89°
2026-04-25 01:28 25.78072 -80.44330 2327 ft 185 kts 87°
2026-04-25 01:28 25.78139 -80.42909 2083 ft 184 kts 89°
2026-04-25 01:28 25.78193 -80.41503 1844 ft 181 kts 88°
2026-04-25 01:29 25.78253 -80.40110 1608 ft 181 kts 88°
2026-04-25 01:29 25.78309 -80.38728 1368 ft 175 kts 87°
2026-04-25 01:29 25.78362 -80.37463 1148 ft 155 kts 88°
2026-04-25 01:29 25.78409 -80.36325 950 ft 144 kts 88°
2026-04-25 01:30 25.78453 -80.35234 775 ft 138 kts 88°
2026-04-25 01:30 25.78497 -80.34160 602 ft 141 kts 89°
2026-04-25 01:30 25.78544 -80.33092 404 ft 134 kts 88°
2026-04-25 01:30 25.78595 -80.32049 238 ft 138 kts 89°
2026-04-25 01:31 25.78643 -80.31003 36 ft 138 kts 88°
2026-04-25 01:31 25.78682 -80.29997 24 ft 121 kts 89°
2026-04-25 01:31 25.78702 -80.29271 24 ft 63 kts 88°
2026-04-25 01:31 25.78715 -80.28921 25 ft 24 kts 88°
2026-04-25 01:32 25.78762 -80.28758 25 ft 22 kts 54°
2026-04-25 01:32 25.78819 -80.28692 25 ft 7 kts 31°
2026-04-25 01:32 25.78846 -80.28683 23 ft 2 kts
2026-04-25 01:32 25.78862 -80.28682 22 ft 0 kts 355°
2026-04-25 01:33 25.78883 -80.28686 23 ft 6 kts 349°
2026-04-25 01:33 25.78895 -80.28689 22 ft 0 kts 349°
2026-04-25 01:34 25.78899 -80.28690 21 ft 2 kts 349°
2026-04-25 01:34 25.78928 -80.28710 20 ft 8 kts 304°
2026-04-25 01:34 25.78946 -80.28798 19 ft 15 kts 271°
2026-04-25 01:35 25.78933 -80.28929 21 ft 19 kts 257°
2026-04-25 01:35 25.78902 -80.29087 24 ft 23 kts 264°
2026-04-25 01:35 25.78890 -80.29279 21 ft 26 kts 268°
2026-04-25 01:35 25.78883 -80.29484 25 ft 27 kts 268°
2026-04-25 01:36 25.78875 -80.29705 23 ft 30 kts 268°
2026-04-25 01:36 25.78866 -80.29936 26 ft 31 kts 268°
2026-04-25 01:36 25.78859 -80.30121 27 ft 25 kts 268°
2026-04-25 01:36 25.78852 -80.30329 25 ft 28 kts 268°
2026-04-25 01:37 25.78872 -80.30477 24 ft 19 kts 302°
2026-04-25 01:37 25.78936 -80.30597 21 ft 12 kts 279°
2026-04-25 01:37 25.78936 -80.30639 19 ft 0 kts 268°